Date,TemperatureHighF,TemperatureAvgF,TemperatureLowF,DewpointHighF,DewpointAvgF,DewpointLowF,HumidityHigh,HumidityAvg,HumidityLow,PressureMaxIn,PressureMinIn,WindSpeedMaxMPH,WindSpeedAvgMPH,GustSpeedMaxMPH,PrecipitationSumIn
2013-2-1,67,46,32,47,36,29,90,72,28,30.28,30.16,10,1,10,0.00
2013-2-2,65,49,38,50,38,21,89,70,19,30.30,30.22,7,0,7,0.00
2013-2-3,62,44,33,45,36,30,91,76,34,30.23,30.11,10,1,10,0.00
2013-2-4,65,45,33,49,38,30,92,79,49,30.18,30.08,8,1,8,0.00
2013-2-5,62,45,32,47,37,29,91,78,36,30.12,30.01,11,1,11,0.00
2013-2-6,52,41,31,44,37,29,92,87,72,30.18,30.07,10,1,10,0.00
2013-2-7,52,39,28,40,34,26,92,83,56,30.19,29.96,12,1,12,0.36
2013-2-8,41,36,31,36,32,28,92,88,77,29.96,29.88,12,1,12,0.01
2013-2-9,44,36,26,36,32,24,91,85,64,30.14,29.94,10,0,10,0.00
2013-2-10,43,38,28,36,33,25,90,83,66,30.11,30.03,10,1,10,0.00
2013-2-11,51,37,25,35,28,22,91,74,44,30.31,30.09,13,1,13,0.00
2013-2-12,56,39,28,38,30,25,91,72,39,30.40,30.30,10,1,10,0.00
2013-2-13,58,40,29,40,32,26,91,76,45,30.38,30.25,11,1,11,0.00
2013-2-14,64,45,30,45,34,28,92,70,38,30.31,30.21,11,1,11,0.00
2013-2-15,66,46,32,44,35,29,89,71,30,30.33,30.27,11,1,11,0.00
2013-2-16,66,46,32,47,31,16,89,64,16,30.32,30.08,10,1,10,0.00
2013-2-17,62,44,30,40,31,22,88,65,24,30.08,29.97,13,1,13,0.00
2013-2-18,60,43,31,42,33,28,91,73,35,30.05,29.91,10,0,10,0.00
2013-2-19,43,37,31,39,35,29,92,90,85,29.92,29.66,11,0,11,0.58
2013-2-20,35,32,26,33,30,24,92,90,86,30.10,29.74,6,0,6,0.03
2013-2-21,43,38,34,38,34,32,92,88,75,30.20,30.05,8,1,8,0.00
2013-2-22,48,40,32,40,35,30,92,83,66,30.27,30.18,9,0,9,0.00
2013-2-23,48,39,30,41,35,27,92,84,70,30.28,30.08,13,1,13,0.00
2013-2-24,53,37,26,40,30,21,90,76,41,30.31,30.12,12,1,12,0.00
2013-2-25,58,41,28,39,32,26,91,74,40,30.33,30.17,12,1,12,0.00
2013-2-26,56,40,29,41,33,26,91,77,53,30.25,30.14,10,1,10,0.00
2013-2-27,60,44,30,43,33,22,92,70,26,30.40,30.25,13,1,13,0.00
2013-2-28,63,45,32,44,36,29,92,73,42,30.48,30.38,11,1,11,0.00